Location: Janeiro
(34.9957°N, 76.7652°W)
Time: 14:11:49
(UTC+00:00)

Cosmos 1850 Rocket - Pass Details

Date: 14 December 2019
Orbit: 754 x 786 km, 74.0° (Epoch: 23 January)

Event Time Altitude Azimuth Distance (km) Brightness Sun altitude
Rises 23:43:17 0° 195° (SSW) 3,210 7.6 -21.2°
Reaches altitude 10° 23:45:38 10° 195° (SSW) 2,293 6.8 -21.7°
Maximum altitude 23:50:51 89° 109° (ESE) 775 3.9 -22.7°
Enters shadow 23:53:01 37° 18° (NNE) 1,189 4.7 -23.1°
